C/2014 C3 ( NEOWISE )

Japanese version
Home page
Updated on November 10, 2019

---------------------------------------------------------------------

* Profile

Discovery Date February 14, 2014
Magnitude
Discoverer Near-Earth Object Wide-field Infrared Survey Explorer

* Pictures

* Orbital Elements

Epoch 2014 Jan. 23.0 TT = JDT 2456680.5
T 2014 Jan. 16.72451 TT                                 MPC
q   1.8620016            (2000.0)            P               Q
z  +0.0092096      Peri.  345.87425     -0.79423626     -0.57534516
 +/-0.0000224      Node   204.40689     -0.50142910     +0.43905072
e   0.9828518      Incl.  151.78451     -0.34315830     +0.69008146
From 550 observations 2014 Feb. 14-May 19, mean residual 0".5.

* Finding Charts

* Magnitudes Graph

        m1 = 13.0 + 5 log d + 10.0 log r

---------------------------------------------------------------------

The orbital elements are published on M.P.E.C. 2014-T44.
The magnitudes graphs are made with Comet for Windows.

---------------------------------------------------------------------

Copyright(C) Seiichi Yoshida (comet@aerith.net). All rights reserved.